Hourly Weather Roundup
Issued by NWS Central Illinois

Home | Current Version | Previous Version | Text Only | Print | Product List | Glossary On
Versions: 1 2 3 4 5 6 7 8 9 10 11 12 13 14 15 16 17 18 19 20 21 22 23 24 25 26 27 28 29 30 31 32 33 34 35 36 37 38 39 40 41 42 43 44 45 46 47 48 49 50
000
NZUS43 KILX 092110
HWRILX

AREA WEATHER ROUNDUP
NATIONAL WEATHER SERVICE, LINCOLN IL
300 PM CST TUE FEB 09 2016


CITY           SKY/WX    TMP DP  RH WIND       PRES   REMARKS
BLOOMINGTON    LGT SNOW  18  12  77 NW20      29.92R WCI   2
CHAMPAIGN      FLURRIES  19  11  70 NW21      29.91R WCI   3
DANVILLE       LGT SNOW  18  12  79 NW16      29.86R WCI   3
DECATUR        FLURRIES  20  10  65 NW17G24   29.95R WCI   5
EFFINGHAM      LGT SNOW  20  16  82 W18G24    29.98R WCI   5
FLORA          FLURRIES  22  15  72 W16G23    29.99R WCI   9
GALESBURG      CLOUDY    16   9  75 W23       29.98R WCI  -2
JACKSONVILLE   CLOUDY    21  11  67 NW21G30   30.01R WCI   5
LACON          CLOUDY    19   7  61 NW18G24   29.93S WCI   3
LAWRENCEVILLE  LGT SNOW  21  13  71 W22       29.96R WCI   5
LITCHFIELD     LGT SNOW  18  10  71 NW17G23   30.01R WCI   3
$$


CITY           SKY/WX    TMP DP  RH WIND       PRES   REMARKS
LINCOLN        CLOUDY    20  11  66 W10G21    29.96R WCI   9
MACOMB         CLOUDY    18  11  75 NW24G32   30.03R WCI   0
MATTOON        LGT SNOW  19  11  70 NW16      29.93R WCI   4
MT CARMEL AP   LGT SNOW  23  14  68 NW18      29.96R WCI   9
OLNEY-NOBLE AP CLOUDY    21  14  73 W16G23    29.98R WCI   7
PARIS          LGT SNOW  19  14  79 W17       29.92R WCI   4
PEORIA         FLURRIES  19   7  59 NW17G23   29.96R WCI   4
PONTIAC        CLOUDY    19  12  72 NW20G25   29.92R WCI   3
RANTOUL        FLURRIES  21  12  69 NW21G29   29.90R WCI   5
ROBINSON       LGT SNOW  20  13  75 NW16G23   29.96R WCI   6
SPRINGFIELD    LGT SNOW  20  10  65 NW22G30   29.98R WCI   3
TAYLORVILLE    CLOUDY    19  10  68 W20G28    29.98R WCI   4
$$

...REGIONAL REPORTS...


CITY           SKY/WX    TMP DP  RH WIND       PRES   REMARKS
CHICAGO O`HARE FLURRIES  17   7  64 NW17      29.85R WCI   1
KANKAKEE       FLURRIES  18  10  70 NW14G22   29.89R WCI   4
MOLINE         PTSUNNY   18   6  59 W23G30    29.98S WCI   0
MOUNT STERLING CLOUDY    17   9  69 NW22      30.02R WCI   0
MOUNT VERNON   CLOUDY    19   9  63 W9G21     30.01R WCI   9
PITTSFIELD     PTSUNNY   19  10  68 NW15      30.04R WCI   5
QUINCY         MOSUNNY   19   8  62 NW20      30.04R WCI   3
ROCKFORD       FLURRIES  18   6  59 NW15G24   29.91R WCI   4
$$


CITY           SKY/WX    TMP DP  RH WIND       PRES   REMARKS
BURLINGTON     CLOUDY    17   7  64 NW18G32   30.02R WCI   1
CEDAR RAPIDS   MOSUNNY   14   5  67 NW22      30.01S WCI  -4
DES MOINES     MOSUNNY   18   4  54 NW21G29   30.13R WCI   1
KIRKSVILLE     FLURRIES  25   8  48 NW15G26   30.07S WCI  13
OTTUMWA        MOSUNNY   18   9  68 NW18G26   30.08S WCI   2
ST LOUIS       FLURRIES  25  12  58 NW14G25   30.03R WCI  13
$$


CITY           SKY/WX    TMP DP  RH WIND       PRES   REMARKS
TERRE HAUTE    LGT SNOW  20  13  74 NW12      29.91R WCI   8
EVANSVILLE     LGT SNOW  24  12  60 W14G22    29.98R WCI  12
INDIANAPOLIS   LGT SNOW  22  15  75 W15       29.83R WCI   9
LAFAYETTE      LGT SNOW  19  12  74 NW15      29.87R WCI   5
MADISON        LGT SNOW  15   6  67 NW15G22   29.88S WCI   0
MILWAUKEE      CLOUDY    18   6  59 NW15      29.84R WCI   4
$$





USA.gov is the U.S. government's official web portal to all federal, state and local government web resources and services.